SWR725 EDDF-EDDM

Flight info

Callsign SWR725
Flight time 0h 41m
Altitude 23000
Route CINDY8S/18 CINDY Z74 HAREM T104 ROKIL ROKIL1A
Aircraft A359/H-SDE2E3GHIJ3J4J5LM1ORWXY/LB1D1

Departure

Time 2026-05-06 13:47
Airport Frankfurt Main Airport (EDDF)

Arrival

Time 2026-05-06 14:29
Airport Munich Airport (EDDM)
Time Latitude Longitude Altitude Speed Heading
2026-05-06 13:09 50.04762 8.56385 362 ft 0 kts 340°
2026-05-06 13:09 50.04754 8.56390 369 ft 0 kts 340°
2026-05-06 13:31 50.04739 8.56398 369 ft 4 kts 338°
2026-05-06 13:31 50.04714 8.56415 368 ft 4 kts 332°
2026-05-06 13:31 50.04691 8.56437 366 ft 4 kts 321°
2026-05-06 13:31 50.04673 8.56466 366 ft 3 kts 297°
2026-05-06 13:32 50.04663 8.56493 369 ft 4 kts 319°
2026-05-06 13:32 50.04643 8.56504 368 ft 4 kts 19°
2026-05-06 13:32 50.04643 8.56502 368 ft 4 kts
2026-05-06 13:32 50.04662 8.56483 363 ft 4 kts 309°
2026-05-06 13:33 50.04667 8.56445 368 ft 4 kts 270°
2026-05-06 13:33 50.04662 8.56409 366 ft 4 kts 261°
2026-05-06 13:33 50.04659 8.56404 367 ft 0 kts 250°
2026-05-06 13:36 50.04657 8.56395 366 ft 3 kts 250°
2026-05-06 13:36 50.04648 8.56352 368 ft 5 kts 252°
2026-05-06 13:36 50.04633 8.56286 368 ft 8 kts 251°
2026-05-06 13:36 50.04613 8.56197 368 ft 10 kts 250°
2026-05-06 13:37 50.04588 8.56085 366 ft 12 kts 250°
2026-05-06 13:37 50.04539 8.55972 367 ft 13 kts 218°
2026-05-06 13:37 50.04451 8.55914 370 ft 14 kts 193°
2026-05-06 13:37 50.04352 8.55923 365 ft 9 kts 165°
2026-05-06 13:38 50.04302 8.55943 364 ft 7 kts 170°
2026-05-06 13:38 50.04249 8.55921 369 ft 9 kts 219°
2026-05-06 13:38 50.04211 8.55823 366 ft 12 kts 243°
2026-05-06 13:38 50.04179 8.55695 364 ft 14 kts 249°
2026-05-06 13:39 50.04143 8.55541 365 ft 16 kts 250°
2026-05-06 13:39 50.04103 8.55366 364 ft 18 kts 250°
2026-05-06 13:39 50.04062 8.55186 364 ft 18 kts 250°
2026-05-06 13:39 50.04017 8.54991 365 ft 20 kts 249°
2026-05-06 13:40 50.03964 8.54775 364 ft 23 kts 250°
2026-05-06 13:40 50.03907 8.54531 362 ft 25 kts 250°
2026-05-06 13:40 50.03824 8.54280 361 ft 27 kts 238°
2026-05-06 13:40 50.03748 8.54007 358 ft 28 kts 249°
2026-05-06 13:41 50.03681 8.53730 357 ft 25 kts 250°
2026-05-06 13:41 50.03620 8.53480 355 ft 21 kts 248°
2026-05-06 13:41 50.03579 8.53292 353 ft 19 kts 252°
2026-05-06 13:41 50.03543 8.53147 356 ft 12 kts 248°
2026-05-06 13:42 50.03531 8.53100 353 ft 5 kts 248°
2026-05-06 13:42 50.03515 8.53038 353 ft 7 kts 248°
2026-05-06 13:42 50.03496 8.52963 349 ft 3 kts 248°
2026-05-06 13:42 50.03488 8.52933 352 ft 4 kts 248°
2026-05-06 13:43 50.03473 8.52873 352 ft 8 kts 248°
2026-05-06 13:43 50.03450 8.52784 349 ft 7 kts 248°
2026-05-06 13:43 50.03449 8.52780 347 ft 0 kts 248°
2026-05-06 13:46 50.03436 8.52730 348 ft 10 kts 248°
2026-05-06 13:46 50.03400 8.52627 353 ft 12 kts 222°
2026-05-06 13:46 50.03352 8.52599 350 ft 0 kts 187°
2026-05-06 13:46 50.03324 8.52594 348 ft 22 kts 186°
2026-05-06 13:47 50.02896 8.52588 345 ft 99 kts 180°
2026-05-06 13:47 50.01985 8.52606 365 ft 159 kts 180°
2026-05-06 13:47 50.00883 8.52756 1098 ft 159 kts 179°
2026-05-06 13:47 49.99753 8.52762 1754 ft 177 kts 183°
2026-05-06 13:48 49.98401 8.52720 2189 ft 209 kts 181°
2026-05-06 13:48 49.96937 8.53130 2896 ft 222 kts 155°
2026-05-06 13:48 49.95802 8.54823 3575 ft 233 kts 125°
2026-05-06 13:48 49.95253 8.56269 3854 ft 235 kts 120°
2026-05-06 13:49 49.94490 8.58549 4395 ft 241 kts 117°
2026-05-06 13:49 49.93967 8.61984 5368 ft 259 kts 97°
2026-05-06 13:49 49.93855 8.64880 5965 ft 275 kts 94°
2026-05-06 13:49 49.93761 8.66904 6522 ft 278 kts 99°
2026-05-06 13:50 49.93143 8.69686 7397 ft 277 kts 125°
2026-05-06 13:50 49.92283 8.71192 8059 ft 275 kts 142°
2026-05-06 13:50 49.90812 8.72919 8975 ft 278 kts 147°
2026-05-06 13:50 49.89228 8.74695 9899 ft 284 kts 143°
2026-05-06 13:51 49.87872 8.77052 10487 ft 306 kts 126°
2026-05-06 13:51 49.86731 8.80020 10716 ft 336 kts 121°
2026-05-06 13:51 49.85579 8.83297 10750 ft 351 kts 120°
2026-05-06 13:51 49.84400 8.86633 10763 ft 354 kts 120°
2026-05-06 13:52 49.83214 8.89950 10854 ft 357 kts 120°
2026-05-06 13:52 49.81987 8.93349 11430 ft 362 kts 121°
2026-05-06 13:52 49.80755 8.96748 12450 ft 362 kts 121°
2026-05-06 13:52 49.79513 9.00166 13411 ft 365 kts 121°
2026-05-06 13:53 49.78258 9.03612 14215 ft 369 kts 121°
2026-05-06 13:53 49.77008 9.07059 14986 ft 373 kts 120°
2026-05-06 13:53 49.75995 9.10763 15877 ft 376 kts 109°
2026-05-06 13:53 49.75299 9.14708 16649 ft 381 kts 106°
2026-05-06 13:54 49.74401 9.18579 17381 ft 383 kts 119°
2026-05-06 13:54 49.72965 9.22051 18156 ft 384 kts 128°
2026-05-06 13:54 49.71303 9.25297 18870 ft 387 kts 132°
2026-05-06 13:54 49.69537 9.28418 19609 ft 390 kts 134°
2026-05-06 13:55 49.67706 9.31528 20344 ft 394 kts 134°
2026-05-06 13:55 49.65845 9.34671 21070 ft 397 kts 134°
2026-05-06 13:55 49.63972 9.37861 21783 ft 401 kts 134°
2026-05-06 13:55 49.62099 9.41091 22440 ft 406 kts 133°
2026-05-06 13:56 49.60223 9.44365 22744 ft 405 kts 133°
2026-05-06 13:56 49.58377 9.47609 22776 ft 401 kts 133°
2026-05-06 13:56 49.56562 9.50801 22784 ft 399 kts 133°
2026-05-06 13:56 49.54734 9.54016 22782 ft 398 kts 133°
2026-05-06 13:57 49.52908 9.57222 22790 ft 398 kts 133°
2026-05-06 13:57 49.51078 9.60428 22793 ft 398 kts 134°
2026-05-06 13:57 49.49248 9.63629 22794 ft 398 kts 134°
2026-05-06 13:57 49.47411 9.66837 22800 ft 398 kts 134°
2026-05-06 13:58 49.45599 9.69995 22799 ft 398 kts 134°
2026-05-06 13:58 49.43764 9.73191 22799 ft 398 kts 134°
2026-05-06 13:58 49.41927 9.76386 22799 ft 398 kts 134°
2026-05-06 13:58 49.40096 9.79567 22799 ft 398 kts 134°
2026-05-06 13:59 49.38262 9.82749 22808 ft 398 kts 134°
2026-05-06 13:59 49.36425 9.85934 22810 ft 398 kts 134°
2026-05-06 13:59 49.34602 9.89083 22808 ft 399 kts 134°
2026-05-06 13:59 49.32751 9.92272 22788 ft 400 kts 134°
2026-05-06 14:00 49.30891 9.95475 22808 ft 400 kts 134°
2026-05-06 14:00 49.29033 9.98669 22808 ft 401 kts 134°
2026-05-06 14:00 49.27194 10.01827 22791 ft 401 kts 134°
2026-05-06 14:00 49.25329 10.05026 22808 ft 402 kts 134°
2026-05-06 14:01 49.23468 10.08217 22811 ft 402 kts 134°
2026-05-06 14:01 49.21609 10.11400 22793 ft 402 kts 134°
2026-05-06 14:01 49.19744 10.14590 22796 ft 402 kts 134°
2026-05-06 14:01 49.17877 10.17791 22815 ft 402 kts 134°
2026-05-06 14:02 49.16033 10.20945 22805 ft 401 kts 134°
2026-05-06 14:02 49.14170 10.24124 22797 ft 402 kts 135°
2026-05-06 14:02 49.12278 10.27302 22805 ft 402 kts 136°
2026-05-06 14:02 49.10355 10.30414 22800 ft 403 kts 136°
2026-05-06 14:03 49.08429 10.33475 22803 ft 403 kts 137°
2026-05-06 14:03 49.06480 10.36560 22807 ft 403 kts 137°
2026-05-06 14:03 49.04541 10.39634 22803 ft 402 kts 137°
2026-05-06 14:03 49.02596 10.42729 22804 ft 402 kts 137°
2026-05-06 14:04 49.00686 10.45776 22810 ft 402 kts 137°
2026-05-06 14:04 48.98749 10.48877 22809 ft 402 kts 136°
2026-05-06 14:04 48.96814 10.51965 22810 ft 402 kts 136°
2026-05-06 14:04 48.94876 10.55050 22804 ft 402 kts 137°
2026-05-06 14:05 48.92968 10.58091 22789 ft 402 kts 137°
2026-05-06 14:05 48.91038 10.61161 22798 ft 400 kts 138°
2026-05-06 14:05 48.89112 10.64219 22801 ft 398 kts 138°
2026-05-06 14:05 48.87206 10.67243 22353 ft 393 kts 138°
2026-05-06 14:06 48.85315 10.70237 21322 ft 401 kts 138°
2026-05-06 14:06 48.83355 10.73328 20281 ft 409 kts 137°
2026-05-06 14:06 48.81369 10.76458 19530 ft 410 kts 137°
2026-05-06 14:06 48.79395 10.79576 18903 ft 407 kts 137°
2026-05-06 14:07 48.77443 10.82650 18353 ft 402 kts 137°
2026-05-06 14:07 48.75531 10.85648 17721 ft 399 kts 137°
2026-05-06 14:07 48.73598 10.88676 17030 ft 396 kts 138°
2026-05-06 14:07 48.71684 10.91667 16381 ft 393 kts 138°
2026-05-06 14:08 48.69794 10.94620 15734 ft 389 kts 138°
2026-05-06 14:08 48.67912 10.97564 15102 ft 386 kts 139°
2026-05-06 14:08 48.66070 11.00435 14465 ft 383 kts 139°
2026-05-06 14:08 48.64216 11.03313 13842 ft 380 kts 139°
2026-05-06 14:09 48.62369 11.06175 13175 ft 378 kts 139°
2026-05-06 14:09 48.60532 11.09017 12517 ft 374 kts 138°
2026-05-06 14:09 48.58717 11.11738 11884 ft 369 kts 142°
2026-05-06 14:09 48.56708 11.14114 11259 ft 362 kts 148°
2026-05-06 14:10 48.54741 11.16481 10639 ft 362 kts 139°
2026-05-06 14:10 48.53192 11.19433 10316 ft 356 kts 123°
2026-05-06 14:10 48.52255 11.22793 10131 ft 346 kts 108°
2026-05-06 14:10 48.51954 11.26348 9954 ft 337 kts 92°
2026-05-06 14:11 48.52137 11.29814 9791 ft 325 kts 85°
2026-05-06 14:11 48.52421 11.33139 9557 ft 315 kts 84°
2026-05-06 14:11 48.52695 11.36346 9208 ft 308 kts 85°
2026-05-06 14:11 48.52961 11.39536 8849 ft 302 kts 85°
2026-05-06 14:12 48.53217 11.42668 8484 ft 296 kts 85°
2026-05-06 14:12 48.53463 11.45726 8165 ft 290 kts 85°
2026-05-06 14:12 48.53702 11.48715 7842 ft 285 kts 85°
2026-05-06 14:12 48.53934 11.51648 7499 ft 283 kts 85°
2026-05-06 14:13 48.54166 11.54602 7162 ft 283 kts 85°
2026-05-06 14:13 48.54399 11.57545 6779 ft 282 kts 85°
2026-05-06 14:13 48.54377 11.60462 6362 ft 276 kts 104°
2026-05-06 14:13 48.53575 11.63041 5891 ft 271 kts 129°
2026-05-06 14:14 48.52134 11.64767 5410 ft 269 kts 155°
2026-05-06 14:14 48.50328 11.65311 5047 ft 264 kts 181°
2026-05-06 14:14 48.48564 11.64593 4970 ft 265 kts 202°
2026-05-06 14:14 48.46884 11.63350 4967 ft 270 kts 205°
2026-05-06 14:15 48.45211 11.62024 4964 ft 272 kts 206°
2026-05-06 14:15 48.43554 11.60720 4964 ft 272 kts 205°
2026-05-06 14:15 48.41875 11.59384 4966 ft 272 kts 206°
2026-05-06 14:15 48.40200 11.58047 4966 ft 272 kts 205°
2026-05-06 14:16 48.38529 11.56700 4967 ft 272 kts 206°
2026-05-06 14:16 48.36868 11.55336 4962 ft 272 kts 209°
2026-05-06 14:16 48.35504 11.53405 4966 ft 276 kts 235°
2026-05-06 14:16 48.34829 11.50720 4970 ft 277 kts 262°
2026-05-06 14:17 48.35013 11.47860 4966 ft 277 kts 289°
2026-05-06 14:17 48.35875 11.45261 4967 ft 278 kts 301°
2026-05-06 14:17 48.36900 11.42785 4967 ft 278 kts 300°
2026-05-06 14:17 48.37641 11.40097 4972 ft 278 kts 284°
2026-05-06 14:18 48.38025 11.37278 4968 ft 278 kts 278°
2026-05-06 14:18 48.38321 11.34396 4972 ft 278 kts 277°
2026-05-06 14:18 48.38593 11.31509 4976 ft 279 kts 277°
2026-05-06 14:18 48.38857 11.28612 4974 ft 280 kts 277°
2026-05-06 14:19 48.39119 11.25702 4979 ft 280 kts 277°
2026-05-06 14:19 48.39247 11.22809 4693 ft 280 kts 263°
2026-05-06 14:19 48.38612 11.20107 4377 ft 271 kts 236°
2026-05-06 14:19 48.37254 11.18211 4063 ft 266 kts 207°
2026-05-06 14:20 48.35491 11.17390 3994 ft 266 kts 189°
2026-05-06 14:20 48.33640 11.17157 3981 ft 267 kts 173°
2026-05-06 14:20 48.31909 11.18069 3990 ft 265 kts 145°
2026-05-06 14:20 48.30583 11.19938 3987 ft 264 kts 130°
2026-05-06 14:21 48.29725 11.22357 3987 ft 264 kts 103°
2026-05-06 14:21 48.29706 11.25083 3990 ft 261 kts 78°
2026-05-06 14:21 48.30152 11.27714 3981 ft 260 kts 73°
2026-05-06 14:21 48.30662 11.30281 3979 ft 254 kts 73°
2026-05-06 14:22 48.31259 11.32663 3995 ft 234 kts 63°
2026-05-06 14:22 48.31904 11.34804 3992 ft 216 kts 70°
2026-05-06 14:22 48.32359 11.36872 3986 ft 200 kts 72°
2026-05-06 14:22 48.32758 11.38820 3994 ft 193 kts 72°
2026-05-06 14:23 48.33179 11.40712 3980 ft 194 kts 68°
2026-05-06 14:23 48.33549 11.42660 3971 ft 194 kts 79°
2026-05-06 14:23 48.33739 11.44665 3972 ft 193 kts 82°
2026-05-06 14:23 48.33918 11.46664 3972 ft 193 kts 82°
2026-05-06 14:24 48.34082 11.48650 3958 ft 185 kts 83°
2026-05-06 14:24 48.34225 11.50469 3992 ft 172 kts 83°
2026-05-06 14:24 48.34371 11.52243 3981 ft 170 kts 82°
2026-05-06 14:24 48.34518 11.54019 3969 ft 171 kts 82°
2026-05-06 14:25 48.34664 11.55799 3961 ft 172 kts 82°
2026-05-06 14:25 48.34806 11.57576 3957 ft 173 kts 83°
2026-05-06 14:25 48.34941 11.59370 3808 ft 169 kts 83°
2026-05-06 14:25 48.35070 11.61096 3556 ft 161 kts 82°
2026-05-06 14:26 48.35196 11.62727 3350 ft 155 kts 82°
2026-05-06 14:26 48.35318 11.64307 3144 ft 154 kts 82°
2026-05-06 14:26 48.35438 11.65890 2949 ft 147 kts 81°
2026-05-06 14:26 48.35551 11.67361 2754 ft 139 kts 81°
2026-05-06 14:27 48.35662 11.68782 2582 ft 136 kts 83°
2026-05-06 14:27 48.35769 11.70186 2389 ft 135 kts 83°
2026-05-06 14:27 48.35875 11.71572 2204 ft 135 kts 82°
2026-05-06 14:27 48.35984 11.72979 2015 ft 136 kts 80°
2026-05-06 14:28 48.36093 11.74390 1829 ft 135 kts 81°
2026-05-06 14:28 48.36200 11.75786 1647 ft 134 kts 83°
2026-05-06 14:28 48.36300 11.77160 1490 ft 128 kts 83°
2026-05-06 14:28 48.36395 11.78314 1477 ft 93 kts 83°
2026-05-06 14:29 48.36450 11.79097 1476 ft 59 kts 84°
2026-05-06 14:29 48.36486 11.79578 1488 ft 40 kts 84°
2026-05-06 14:29 48.36501 11.79948 1483 ft 30 kts 98°
2026-05-06 14:29 48.36457 11.80162 1483 ft 9 kts 112°
2026-05-06 14:30 48.36429 11.80266 1478 ft 12 kts 111°
2026-05-06 14:30 48.36394 11.80392 1478 ft 14 kts 112°
2026-05-06 14:30 48.36332 11.80499 1478 ft 14 kts 176°
2026-05-06 14:30 48.36288 11.80399 1481 ft 13 kts 260°
2026-05-06 14:31 48.36272 11.80248 1484 ft 16 kts 262°
2026-05-06 14:31 48.36262 11.80071 1485 ft 18 kts 264°
2026-05-06 14:31 48.36246 11.79867 1483 ft 21 kts 262°
2026-05-06 14:31 48.36228 11.79669 1484 ft 16 kts 263°
2026-05-06 14:32 48.36206 11.79508 1476 ft 15 kts 233°
2026-05-06 14:32 48.36102 11.79477 1478 ft 16 kts 174°
2026-05-06 14:32 48.36034 11.79488 1478 ft 1 kts 173°
2026-05-06 14:32 48.36033 11.79488 1478 ft 0 kts 173°
2026-05-06 14:34 48.35981 11.79497 1480 ft 11 kts 174°
2026-05-06 14:34 48.35898 11.79509 1479 ft 14 kts 174°
2026-05-06 14:34 48.35809 11.79564 1479 ft 14 kts 120°
2026-05-06 14:34 48.35807 11.79718 1481 ft 15 kts 86°
2026-05-06 14:35 48.35819 11.79887 1481 ft 16 kts 82°
2026-05-06 14:35 48.35804 11.80042 1484 ft 15 kts 139°
2026-05-06 14:35 48.35747 11.80072 1481 ft 9 kts 165°
2026-05-06 14:35 48.35679 11.80085 1483 ft 6 kts 198°
2026-05-06 14:36 48.35667 11.80064 1478 ft 4 kts 233°
2026-05-06 14:36 48.35651 11.79981 1483 ft 8 kts 262°
2026-05-06 14:36 48.35649 11.79958 1476 ft 0 kts 263°